Find Starlink 32340

NORAD ID: 61008 Int'l Des: 2024-158 Owner: SPXS Country: US Constellation: starlink operational
LEOCIRCULAR

Live-Position

3D-Globus wird geladen...

Über Starlink 32340

Beschreibung wird geladen...

Nächste Überflüge

Passes for default location (London). Set your location on the main map for personalized predictions.

Höhenverlauf

Loading altitude history...

Zweizeiliger Elementsatz

1 61008U 24158U 26129.33557021 .00000047 00000-0 13719-4 0 9997
2 61008 53.1599 143.9605 0001146 91.2107 268.9025 15.30193986 94863
Epoch: 9. Mai 2026 • Age: 18 hours

Aktueller Status

Höhe 480.9 km
Geschwindigkeit 7.63 km/s
Subsatellitenpunkt 52.92°N, 31.93°W
Startdatum 5. Sept. 2024
Alter 1.6 years
Typ internet

Technische Details

Klassifizierung Payload
Masse 730.00 kg
Trockenmasse 700.00 kg
Gesamtmasse 730.00 kg
Länge 0.30 m
Durchmesser 4.10 m
Spannweite 29.00 m
Form Box + pan
Hersteller SPXS
Bus-Typ Starlink V2M
Phasenstatus In Orbit
Besitzer/Staat SPXS/US

Most Searched